Home   Weather   Washington DC   Past weeks
Flag for USA

Past Weather in Washington DC, USA — December 2019

Now
63 °F

Scattered clouds.


Feels Like: 63 °F
Forecast: 60 / 41 °F
Wind: 23 mph from Northwest

Location: Reagan National Airport

Current Time: Apr 2, 2020 at 5:57:07 pm

Latest Report: Apr 2, 2020 at 4:52 pm


Visibility: 10 mi

Pressure: 29.80 "Hg

Humidity: 30%

Dew Point: 31 °F

Location of Washington DCLocation

December 2019 Weather in Washington DC — Graph

°F

High & Low Weather Summary for December 2019

 TemperatureHumidityPressure
High67 °F (Dec 28, 12:52 pm)100% (Dec 2, 10:55 am)30.76 "Hg (Dec 2, 10:55 am)
Low23 °F (Dec 19, 5:52 am)35% (Dec 19, 1:52 pm)29.32 "Hg (Dec 14, 11:54 am)
Average42 °F76%30.06 "Hg
* Reported Dec 1 12:52 am — Dec 31 11:52 pm, Washington DC. Weather by CustomWeather, © 2020

Note: Actual official high and low records may vary slightly from our data, if they occured in-between our weather recording intervals... More about our weather records

Washington DC Weather History for December 1, 2019

Scroll right to see more
 ConditionsComfort  
Time TempWeatherWind HumidityBarometerVisibility
12:52 am
Sun, Dec 1
43 °FOvercast.6 mph60%29.98 "Hg10 mi
1:34 am42 °FMostly cloudy.7 mph65%29.99 "Hg10 mi
1:52 am42 °FOvercast.9 mph68%29.98 "Hg10 mi
3:01 am42 °FOvercast.9 mph73%29.94 "Hg10 mi
3:12 am41 °FLight rain. Mostly cloudy.9 mph76%29.93 "Hg10 mi
3:25 am41 °FLight rain. Overcast.9 mph80%29.93 "Hg10 mi
3:52 am40 °FDrizzle. Mostly cloudy.7 mph89%29.91 "Hg7 mi
4:10 am40 °FDrizzle. Mostly cloudy.8 mph89%29.92 "Hg8 mi
4:52 am40 °FDrizzle. Overcast.5 mph89%29.89 "Hg10 mi
5:22 am40 °FLight rain. Fog.5 mph93%29.88 "Hg2 mi
5:30 am40 °FLight rain. Fog.6 mph93%29.89 "Hg3 mi
5:52 am40 °FLight rain. Fog.5 mph93%29.88 "Hg5 mi
6:52 am40 °FDrizzle. Fog.7 mph93%29.85 "Hg6 mi
7:52 am40 °FDrizzle. Fog.7 mph93%29.85 "Hg6 mi
8:52 am41 °FLow clouds.12 mph93%29.79 "Hg10 mi
9:52 am42 °FLight rain. Fog.12 mph92%29.77 "Hg5 mi
10:17 am43 °FRain. Fog.3 mph93%29.77 "Hg6 mi
10:52 am43 °FRain. Fog.9 mph93%29.73 "Hg2 mi
11:12 am43 °FLight rain. Fog.9 mph97%29.73 "Hg5 mi
11:37 am43 °FRain. Fog.14 mph97%29.65 "Hg4 mi
11:52 am43 °FLight rain. Fog.9 mph97%29.65 "Hg5 mi
12:52 pm45 °FHeavy rain. Fog.8 mph93%29.59 "Hg5 mi
1:12 pm45 °FLight rain. Fog.6 mph97%29.57 "Hg2 mi
1:32 pm45 °FRain. Fog.8 mph97%29.55 "Hg1 mi
2:10 pm45 °FLight rain. Fog.7 mph93%29.53 "Hg4 mi
2:28 pm45 °FLight rain. Fog.8 mph97%29.53 "Hg2 mi
2:52 pm45 °FLight rain. Fog.9 mph97%29.51 "Hg2 mi
3:35 pm45 °FDrizzle. Fog.7 mph93%29.50 "Hg3 mi
3:44 pm45 °FDrizzle. Fog.9 mph93%29.49 "Hg2 mi
4:00 pm45 °FDrizzle. Fog.8 mph93%29.49 "Hg3 mi
4:28 pm45 °FLow clouds.8 mph93%29.51 "Hg7 mi
5:05 pm45 °FLow clouds.13 mph93%29.49 "Hg10 mi
5:36 pm45 °FLow clouds.8 mph97%29.49 "Hg10 mi
5:52 pm45 °FLow clouds.8 mph97%29.49 "Hg10 mi
6:52 pm45 °FLow clouds.8 mph93%29.50 "Hg10 mi
7:52 pm44 °FLow clouds.8 mph93%29.51 "Hg10 mi
8:52 pm42 °FLow clouds.10 mph92%29.52 "Hg10 mi
9:52 pm41 °FLow clouds.12 mph89%29.54 "Hg10 mi
10:24 pm40 °FLow clouds.10 mph89%29.54 "Hg10 mi
10:52 pm40 °FOvercast.9 mph93%29.54 "Hg10 mi
11:19 pm40 °FMostly cloudy.9 mph89%29.54 "Hg10 mi
11:52 pm40 °FOvercast.9 mph89%29.54 "Hg10 mi
Weather by CustomWeather, © 2020

See weather overview

Advertising